| time (UTC) | temp F | wind direction | speed MPH | gust MPH | rain 1hr in | rain 24hr in | rain mn in | humidity % | barometer mb |
| 20260505213042 | 51 | 22 | 0.0 | 3.0 | 0.00 | 0.05 | 0.05 | 77 | 1007.3 |
| 20260505213027 | 51 | 281 | 2.0 | 11.0 | 0.01 | 0.07 | 0.07 | 75 | 1008.0 |
| 20260505212515 | 51 | 332 | 3.0 | 11.0 | 0.02 | 0.07 | 0.07 | 75 | 1008.1 |
| 20260505212013 | 51 | 323 | 4.0 | 9.0 | 0.03 | 0.07 | 0.07 | 76 | 1007.9 |
| 20260505211539 | 51 | 286 | 4.0 | 9.0 | 0.05 | 0.07 | 0.07 | 77 | 1007.8 |
| 20260505211536 | 51 | 44 | 0.0 | 1.0 | 0.01 | 0.05 | 0.05 | 79 | 1007.3 |
| 20260505211013 | 51 | 323 | 2.0 | 8.0 | 0.05 | 0.07 | 0.07 | 79 | 1008.0 |
| 20260505210516 | 51 | 321 | 1.0 | 7.0 | 0.05 | 0.07 | 0.07 | 80 | 1008.0 |
| 20260505210034 | 51 | 0 | 0.0 | 1.0 | 0.01 | 0.05 | 0.05 | 80 | 1007.4 |
| 20260505210029 | 52 | 350 | 2.0 | 7.0 | 0.05 | 0.07 | 0.07 | 80 | 1007.8 |
| 20260505205514 | 52 | 0 | 0.0 | 4.0 | 0.06 | 0.07 | 0.07 | 81 | 1007.9 |
| 20260505205012 | 52 | 303 | 1.0 | 6.0 | 0.07 | 0.07 | 0.07 | 80 | 1007.9 |
| 20260505204540 | 51 | 5 | 2.0 | 5.0 | 0.04 | 0.05 | 0.05 | 80 | 1007.1 |
| 20260505204530 | 52 | 284 | 1.0 | 7.0 | 0.07 | 0.07 | 0.07 | 79 | 1007.8 |
| 20260505204010 | 52 | 342 | 1.0 | 7.0 | 0.07 | 0.07 | 0.07 | 79 | 1007.7 |
| 20260505203511 | 52 | 342 | 1.0 | 4.0 | 0.07 | 0.07 | 0.07 | 78 | 1007.8 |
| 20260505203056 | 51 | 0 | 0.0 | 2.0 | 0.04 | 0.04 | 0.04 | 81 | 1007.3 |
| 20260505203037 | 53 | 0 | 1.0 | 6.0 | 0.06 | 0.06 | 0.06 | 77 | 1008.1 |
| 20260505202511 | 53 | 0 | 1.0 | 6.0 | 0.05 | 0.05 | 0.05 | 76 | 1007.7 |
| 20260505202012 | 54 | 313 | 2.0 | 8.0 | 0.03 | 0.03 | 0.03 | 75 | 1007.6 |
| 20260505201546 | 51 | 23 | 0.0 | 4.0 | 0.03 | 0.03 | 0.03 | 78 | 1007.0 |
| 20260505201528 | 54 | 281 | 0.0 | 9.0 | 0.02 | 0.02 | 0.02 | 74 | 1007.4 |
| 20260505201015 | 54 | 14 | 2.0 | 9.0 | 0.02 | 0.02 | 0.02 | 72 | 1007.4 |
| 20260505200512 | 55 | 345 | 3.0 | 9.0 | 0.02 | 0.02 | 0.02 | 71 | 1007.5 |
| 20260505200048 | 53 | 30 | 3.0 | 5.0 | 0.03 | 0.03 | 0.03 | 74 | 1006.9 |
| 20260505200030 | 55 | 0 | 3.0 | 14.0 | 0.02 | 0.02 | 0.02 | 69 | 1007.3 |
| 20260505195511 | 56 | 46 | 3.0 | 14.0 | 0.01 | 0.01 | 0.01 | 66 | 1007.4 |
| 20260505195013 | 57 | 298 | 4.0 | 11.0 | 0.00 | 0.00 | 0.00 | 63 | 1007.4 |
| 20260505194535 | 56 | 42 | 2.0 | 6.0 | 0.00 | 0.00 | 0.00 | 63 | 1006.7 |
| 20260505194528 | 58 | 297 | 3.0 | 11.0 | 0.00 | 0.00 | 0.00 | 60 | 1007.3 |
| 20260505194016 | 59 | 320 | 3.0 | 12.0 | 0.00 | 0.00 | 0.00 | 56 | 1007.1 |
| 20260505193513 | 59 | 274 | 4.0 | 14.0 | 0.00 | 0.00 | 0.00 | 54 | 1006.9 |
| 20260505193042 | 58 | 28 | 2.0 | 6.0 | 0.00 | 0.00 | 0.00 | 54 | 1006.2 |
| 20260505193027 | 59 | 304 | 4.0 | 14.0 | 0.00 | 0.00 | 0.00 | 54 | 1006.7 |
| 20260505192512 | 60 | 223 | 5.0 | 15.0 | 0.00 | 0.00 | 0.00 | 53 | 1006.6 |
| 20260505192009 | 60 | 289 | 6.0 | 15.0 | 0.00 | 0.00 | 0.00 | 51 | 1006.4 |
| 20260505191547 | 59 | 53 | 3.0 | 9.0 | 0.00 | 0.00 | 0.00 | 53 | 1005.8 |
| 20260505191528 | 61 | 323 | 6.0 | 15.0 | 0.00 | 0.00 | 0.00 | 51 | 1006.2 |
| 20260505191011 | 61 | 350 | 4.0 | 11.0 | 0.00 | 0.00 | 0.00 | 50 | 1006.1 |
| 20260505190512 | 61 | 301 | 3.0 | 11.0 | 0.00 | 0.00 | 0.00 | 50 | 1006.1 |
| 20260505190041 | 60 | 30 | 3.0 | 7.0 | 0.00 | 0.00 | 0.00 | 49 | 1005.7 |
| 20260505190027 | 61 | 317 | 2.0 | 9.0 | 0.00 | 0.00 | 0.00 | 50 | 1006.2 |
| 20260505185513 | 61 | 281 | 3.0 | 13.0 | 0.00 | 0.00 | 0.00 | 50 | 1006.2 |
| 20260505185012 | 61 | 247 | 4.0 | 13.0 | 0.00 | 0.00 | 0.00 | 49 | 1006.1 |
| 20260505184542 | 61 | 258 | 4.0 | 10.0 | 0.00 | 0.00 | 0.00 | 49 | 1006.1 |
| 20260505184540 | 60 | 12 | 0.0 | 9.0 | 0.00 | 0.00 | 0.00 | 51 | 1005.5 |
| 20260505184016 | 61 | 259 | 2.0 | 12.0 | 0.00 | 0.00 | 0.00 | 50 | 1006.0 |
| 20260505183511 | 61 | 314 | 5.0 | 13.0 | 0.00 | 0.00 | 0.00 | 49 | 1006.0 |
| 20260505183037 | 60 | 41 | 0.0 | 10.0 | 0.00 | 0.00 | 0.00 | 51 | 1005.4 |
| 20260505182512 | 62 | 211 | 4.0 | 15.0 | 0.00 | 0.00 | 0.00 | 50 | 1005.8 |
| 20260505182014 | 62 | 242 | 3.0 | 12.0 | 0.00 | 0.00 | 0.00 | 51 | 1005.7 |
| 20260505181546 | 61 | 18 | 1.0 | 10.0 | 0.00 | 0.00 | 0.00 | 51 | 1005.1 |
| 20260505181530 | 62 | 238 | 2.0 | 17.0 | 0.00 | 0.00 | 0.00 | 52 | 1005.6 |
| 20260505181012 | 62 | 355 | 3.0 | 17.0 | 0.00 | 0.00 | 0.00 | 52 | 1005.6 |
| 20260505180516 | 63 | 323 | 3.0 | 13.0 | 0.00 | 0.00 | 0.00 | 52 | 1005.4 |
| 20260505180051 | 61 | 0 | 1.0 | 8.0 | 0.00 | 0.00 | 0.00 | 52 | 1004.8 |
| 20260505180029 | 63 | 179 | 4.0 | 11.0 | 0.00 | 0.00 | 0.00 | 53 | 1005.3 |
| 20260505175510 | 63 | 334 | 3.0 | 13.0 | 0.00 | 0.00 | 0.00 | 53 | 1005.3 |
| 20260505175013 | 63 | 233 | 4.0 | 13.0 | 0.00 | 0.00 | 0.00 | 52 | 1005.2 |
| 20260505174544 | 62 | 256 | 5.0 | 12.0 | 0.00 | 0.00 | 0.00 | 52 | 1004.5 |
| 20260505174529 | 63 | 171 | 7.0 | 13.0 | 0.00 | 0.00 | 0.00 | 52 | 1005.1 |
| 20260505174011 | 63 | 279 | 4.0 | 14.0 | 0.00 | 0.00 | 0.00 | 54 | 1004.9 |
| 20260505173510 | 63 | 259 | 6.0 | 16.0 | 0.00 | 0.00 | 0.00 | 54 | 1004.9 |
| 20260505173043 | 62 | 231 | 2.0 | 10.0 | 0.00 | 0.00 | 0.00 | 52 | 1004.2 |
| 20260505173029 | 63 | 216 | 5.0 | 16.0 | 0.00 | 0.00 | 0.00 | 54 | 1004.8 |
| 20260505172511 | 63 | 236 | 6.0 | 16.0 | 0.00 | 0.00 | 0.00 | 55 | 1004.9 |
| 20260505172010 | 63 | 238 | 7.0 | 16.0 | 0.00 | 0.00 | 0.00 | 55 | 1004.8 |
| 20260505171544 | 63 | 22 | 2.0 | 7.0 | 0.00 | 0.00 | 0.00 | 54 | 1003.8 |
| 20260505171528 | 63 | 222 | 6.0 | 13.0 | 0.00 | 0.00 | 0.00 | 57 | 1004.7 |
| 20260505171010 | 63 | 292 | 4.0 | 15.0 | 0.00 | 0.00 | 0.00 | 59 | 1004.5 |
| 20260505170512 | 62 | 202 | 8.0 | 15.0 | 0.00 | 0.00 | 0.00 | 60 | 1004.6 |
| 20260505170055 | 63 | 231 | 2.0 | 7.0 | 0.00 | 0.00 | 0.00 | 56 | 1003.6 |
| 20260505170035 | 62 | 205 | 4.0 | 13.0 | 0.00 | 0.00 | 0.00 | 61 | 1004.4 |
| 20260505165510 | 62 | 227 | 5.0 | 14.0 | 0.00 | 0.00 | 0.00 | 62 | 1004.4 |
| 20260505165010 | 62 | 244 | 7.0 | 14.0 | 0.00 | 0.00 | 0.00 | 62 | 1004.4 |
| 20260505164543 | 62 | 257 | 2.0 | 8.0 | 0.00 | 0.00 | 0.00 | 61 | 1003.5 |
| 20260505164535 | 62 | 252 | 4.0 | 11.0 | 0.00 | 0.00 | 0.00 | 62 | 1004.3 |
| 20260505164011 | 62 | 251 | 2.0 | 12.0 | 0.00 | 0.00 | 0.00 | 63 | 1004.3 |
| 20260505163510 | 62 | 282 | 3.0 | 13.0 | 0.00 | 0.00 | 0.00 | 64 | 1004.6 |
| 20260505163045 | 61 | 198 | 2.0 | 7.0 | 0.00 | 0.00 | 0.00 | 64 | 1003.9 |
| 20260505163028 | 61 | 286 | 5.0 | 13.0 | 0.00 | 0.00 | 0.00 | 64 | 1004.6 |
| 20260505162513 | 61 | 229 | 4.0 | 14.0 | 0.00 | 0.00 | 0.00 | 65 | 1004.7 |
| 20260505162012 | 61 | 302 | 4.0 | 17.0 | 0.00 | 0.00 | 0.00 | 65 | 1004.8 |
| 20260505161540 | 60 | 215 | 3.0 | 8.0 | 0.00 | 0.00 | 0.00 | 65 | 1003.9 |
| 20260505161526 | 61 | 200 | 6.0 | 17.0 | 0.00 | 0.00 | 0.00 | 65 | 1004.7 |
| 20260505161011 | 61 | 227 | 7.0 | 20.0 | 0.00 | 0.00 | 0.00 | 66 | 1004.7 |
| 20260505160516 | 61 | 266 | 5.0 | 20.0 | 0.00 | 0.00 | 0.00 | 66 | 1004.5 |
| 20260505153047 | 59 | 37 | 1.0 | 4.0 | 0.00 | 0.00 | 0.00 | 67 | 1003.5 |
| 20260505153028 | 62 | 269 | 4.0 | 18.0 | 0.00 | 0.00 | 0.00 | 70 | 1004.1 |
| 20260505152511 | 62 | 236 | 6.0 | 12.0 | 0.00 | 0.00 | 0.00 | 70 | 1004.1 |
| 20260505152011 | 62 | 281 | 1.0 | 7.0 | 0.00 | 0.00 | 0.00 | 68 | 1004.0 |
| 20260505151557 | 60 | 8 | 1.0 | 5.0 | 0.00 | 0.00 | 0.00 | 68 | 1003.2 |
| 20260505151535 | 62 | 355 | 2.0 | 9.0 | 0.00 | 0.00 | 0.00 | 68 | 1003.7 |
| 20260505151010 | 62 | 306 | 3.0 | 9.0 | 0.00 | 0.00 | 0.00 | 68 | 1003.6 |
| 20260505150513 | 62 | 42 | 3.0 | 9.0 | 0.00 | 0.00 | 0.00 | 67 | 1003.5 |
| 20260505140512 | 65 | 231 | 4.0 | 10.0 | 0.00 | 0.00 | 0.00 | 68 | 1002.3 |
| 20260505125013 | 61 | 255 | 4.0 | 11.0 | 0.00 | 0.00 | 0.00 | 71 | 1001.3 |
| 20260505124540 | 61 | 229 | 3.0 | 8.0 | 0.00 | 0.00 | 0.00 | 73 | 1000.4 |
| 20260505124534 | 61 | 236 | 3.0 | 11.0 | 0.00 | 0.00 | 0.00 | 71 | 1001.2 |
| 20260505124014 | 61 | 248 | 6.0 | 11.0 | 0.00 | 0.00 | 0.00 | 71 | 1001.3 |
| 20260505123512 | 61 | 231 | 4.0 | 9.0 | 0.00 | 0.00 | 0.00 | 71 | 1001.2 |
| 20260505123037 | 60 | 243 | 1.0 | 5.0 | 0.00 | 0.00 | 0.00 | 74 | 999.9 |
| 20260505123030 | 61 | 211 | 3.0 | 7.0 | 0.00 | 0.00 | 0.00 | 72 | 1000.9 |
| 20260505122513 | 61 | 234 | 2.0 | 7.0 | 0.00 | 0.00 | 0.00 | 72 | 1000.8 |
| 20260505122015 | 61 | 252 | 3.0 | 8.0 | 0.00 | 0.00 | 0.00 | 72 | 1000.7 |
| 20260505121555 | 59 | 253 | 2.0 | 5.0 | 0.00 | 0.00 | 0.00 | 75 | 1000.0 |
| 20260505121536 | 61 | 248 | 3.0 | 8.0 | 0.00 | 0.00 | 0.00 | 72 | 1000.8 |
| 20260505121015 | 60 | 229 | 2.0 | 10.0 | 0.00 | 0.00 | 0.00 | 73 | 1000.9 |
| 20260505120515 | 60 | 219 | 4.0 | 10.0 | 0.00 | 0.00 | 0.00 | 73 | 1001.1 |
| 20260505120044 | 59 | 234 | 2.0 | 7.0 | 0.00 | 0.00 | 0.00 | 76 | 1000.2 |
| 20260505120029 | 60 | 252 | 3.0 | 12.0 | 0.00 | 0.00 | 0.00 | 73 | 1001.1 |
| 20260505115511 | 60 | 246 | 4.0 | 12.0 | 0.00 | 0.00 | 0.00 | 73 | 1001.1 |
| 20260505115015 | 60 | 279 | 6.0 | 12.0 | 0.00 | 0.00 | 0.00 | 73 | 1001.1 |
| 20260505114541 | 58 | 255 | 2.0 | 6.0 | 0.00 | 0.00 | 0.00 | 77 | 1000.1 |
| 20260505114529 | 60 | 230 | 5.0 | 14.0 | 0.00 | 0.00 | 0.00 | 73 | 1000.9 |
| 20260505114012 | 60 | 223 | 4.0 | 14.0 | 0.00 | 0.00 | 0.00 | 74 | 1000.9 |
| 20260505113511 | 60 | 240 | 4.0 | 13.0 | 0.00 | 0.00 | 0.00 | 74 | 1000.7 |
| 20260505113040 | 58 | 237 | 4.0 | 9.0 | 0.00 | 0.00 | 0.00 | 77 | 999.9 |
| 20260505112513 | 59 | 226 | 4.0 | 14.0 | 0.00 | 0.00 | 0.00 | 74 | 1000.7 |
| 20260505112015 | 59 | 212 | 5.0 | 14.0 | 0.00 | 0.00 | 0.00 | 75 | 1000.8 |
| 20260505111544 | 58 | 244 | 4.0 | 11.0 | 0.00 | 0.00 | 0.00 | 78 | 999.8 |
| 20260505111540 | 59 | 254 | 5.0 | 14.0 | 0.00 | 0.00 | 0.00 | 75 | 1000.7 |
| 20260505111014 | 60 | 250 | 5.0 | 14.0 | 0.00 | 0.00 | 0.00 | 75 | 1000.6 |
| 20260505110514 | 60 | 252 | 4.0 | 10.0 | 0.00 | 0.00 | 0.00 | 75 | 1000.6 |
| 20260505101552 | 58 | 250 | 4.0 | 11.0 | 0.00 | 0.00 | 0.00 | 77 | 998.9 |
| 20260505101010 | 59 | 241 | 3.0 | 9.0 | 0.00 | 0.00 | 0.00 | 75 | 999.8 |
| 20260505100509 | 59 | 254 | 4.0 | 12.0 | 0.00 | 0.00 | 0.00 | 75 | 999.8 |
| 20260505100043 | 58 | 262 | 3.0 | 11.0 | 0.00 | 0.00 | 0.00 | 76 | 998.7 |
| 20260505095512 | 59 | 212 | 4.0 | 9.0 | 0.00 | 0.00 | 0.00 | 75 | 999.7 |
| 20260505095013 | 59 | 225 | 3.0 | 7.0 | 0.00 | 0.00 | 0.00 | 75 | 999.7 |
| 20260505094540 | 58 | 233 | 6.0 | 10.0 | 0.00 | 0.00 | 0.00 | 76 | 998.8 |
| 20260505094012 | 59 | 221 | 4.0 | 10.0 | 0.00 | 0.00 | 0.00 | 75 | 999.7 |
| 20260505093512 | 59 | 226 | 5.0 | 10.0 | 0.00 | 0.00 | 0.00 | 75 | 999.7 |
| 20260505093043 | 58 | 245 | 6.0 | 11.0 | 0.00 | 0.00 | 0.00 | 75 | 998.8 |
| 20260505093039 | 59 | 255 | 5.0 | 10.0 | 0.00 | 0.00 | 0.00 | 74 | 999.6 |
| 20260505092513 | 59 | 250 | 4.0 | 10.0 | 0.00 | 0.00 | 0.00 | 74 | 999.7 |
| 20260505092013 | 59 | 219 | 5.0 | 12.0 | 0.00 | 0.00 | 0.00 | 74 | 999.6 |
| 20260505091540 | 58 | 162 | 5.0 | 11.0 | 0.00 | 0.00 | 0.00 | 75 | 998.7 |
| 20260505091530 | 59 | 207 | 5.0 | 12.0 | 0.00 | 0.00 | 0.00 | 74 | 999.6 |
| 20260505091011 | 59 | 231 | 4.0 | 8.0 | 0.00 | 0.00 | 0.00 | 74 | 999.7 |
| 20260505090511 | 59 | 230 | 4.0 | 10.0 | 0.00 | 0.00 | 0.00 | 74 | 999.5 |
| 20260505090057 | 59 | 243 | 5.0 | 10.0 | 0.00 | 0.00 | 0.00 | 75 | 998.6 |
| 20260505090032 | 59 | 220 | 5.0 | 11.0 | 0.00 | 0.00 | 0.00 | 74 | 999.5 |
| 20260505085511 | 59 | 209 | 5.0 | 19.0 | 0.00 | 0.00 | 0.00 | 74 | 999.6 |
| 20260505085011 | 60 | 250 | 5.0 | 19.0 | 0.00 | 0.00 | 0.00 | 73 | 999.4 |
| 20260505084551 | 59 | 251 | 5.0 | 14.0 | 0.00 | 0.00 | 0.00 | 74 | 998.6 |
| 20260505084530 | 60 | 227 | 5.0 | 11.0 | 0.00 | 0.00 | 0.00 | 74 | 999.5 |
| 20260505084011 | 60 | 244 | 5.0 | 18.0 | 0.00 | 0.00 | 0.00 | 73 | 999.4 |
| 20260505083510 | 60 | 229 | 5.0 | 18.0 | 0.00 | 0.00 | 0.00 | 73 | 999.6 |
| 20260505083040 | 60 | 229 | 8.0 | 13.0 | 0.00 | 0.00 | 0.00 | 73 | 998.7 |
| 20260505083036 | 60 | 236 | 6.0 | 17.0 | 0.00 | 0.00 | 0.00 | 73 | 999.7 |
| 20260505082512 | 61 | 219 | 6.0 | 12.0 | 0.00 | 0.00 | 0.00 | 72 | 999.6 |
| 20260505082014 | 61 | 232 | 5.0 | 12.0 | 0.00 | 0.00 | 0.00 | 72 | 999.7 |
| 20260505081544 | 60 | 261 | 5.0 | 14.0 | 0.00 | 0.00 | 0.00 | 73 | 998.8 |
| 20260505081530 | 62 | 250 | 7.0 | 11.0 | 0.00 | 0.00 | 0.00 | 71 | 999.7 |
| 20260505081015 | 62 | 245 | 5.0 | 10.0 | 0.00 | 0.00 | 0.00 | 71 | 999.9 |
| 20260505080517 | 62 | 234 | 4.0 | 12.0 | 0.00 | 0.00 | 0.00 | 71 | 1000.0 |
| 20260505080038 | 61 | 243 | 5.0 | 11.0 | 0.00 | 0.00 | 0.00 | 73 | 999.1 |
| 20260505080030 | 62 | 254 | 5.0 | 12.0 | 0.00 | 0.00 | 0.00 | 71 | 1000.0 |
| 20260505075512 | 62 | 284 | 3.0 | 9.0 | 0.00 | 0.00 | 0.00 | 71 | 1000.1 |
| 20260505075012 | 63 | 202 | 5.0 | 12.0 | 0.00 | 0.00 | 0.00 | 70 | 1000.0 |
| 20260505074535 | 60 | 242 | 4.0 | 9.0 | 0.00 | 0.00 | 0.00 | 73 | 999.0 |
| 20260505074529 | 63 | 227 | 4.0 | 12.0 | 0.00 | 0.00 | 0.00 | 70 | 999.9 |
| 20260505074012 | 63 | 211 | 3.0 | 13.0 | 0.00 | 0.00 | 0.00 | 70 | 1000.0 |
| 20260505073509 | 63 | 250 | 6.0 | 13.0 | 0.00 | 0.00 | 0.00 | 70 | 1000.0 |
| 20260505073038 | 60 | 240 | 5.0 | 9.0 | 0.00 | 0.00 | 0.00 | 72 | 999.1 |
| 20260505073030 | 63 | 254 | 5.0 | 12.0 | 0.00 | 0.00 | 0.00 | 70 | 999.9 |
| 20260505072511 | 63 | 250 | 6.0 | 12.0 | 0.00 | 0.00 | 0.00 | 71 | 999.9 |
| 20260505072012 | 62 | 238 | 6.0 | 12.0 | 0.00 | 0.00 | 0.00 | 71 | 999.8 |
| 20260505071540 | 60 | 252 | 3.0 | 9.0 | 0.00 | 0.00 | 0.00 | 71 | 998.9 |
| 20260505071529 | 62 | 249 | 5.0 | 14.0 | 0.00 | 0.00 | 0.00 | 71 | 999.7 |
| 20260505071013 | 62 | 262 | 5.0 | 14.0 | 0.00 | 0.00 | 0.00 | 71 | 999.7 |
| 20260505070513 | 61 | 273 | 6.0 | 14.0 | 0.00 | 0.00 | 0.00 | 71 | 999.8 |
| 20260505070044 | 60 | 247 | 4.0 | 10.0 | 0.00 | 0.00 | 0.00 | 71 | 998.9 |
| 20260505070030 | 61 | 243 | 3.0 | 9.0 | 0.00 | 0.00 | 0.00 | 72 | 999.9 |
| 20260505065513 | 60 | 228 | 2.0 | 7.0 | 0.00 | 0.00 | 0.00 | 72 | 1000.0 |
| 20260505065013 | 60 | 236 | 3.0 | 8.0 | 0.00 | 0.00 | 0.00 | 72 | 1000.1 |
| 20260505064535 | 60 | 267 | 3.0 | 7.0 | 0.00 | 0.00 | 0.00 | 71 | 999.1 |
| 20260505064527 | 60 | 243 | 2.0 | 11.0 | 0.00 | 0.00 | 0.00 | 73 | 1000.1 |
| 20260505064011 | 59 | 205 | 2.0 | 11.0 | 0.00 | 0.00 | 0.00 | 73 | 1000.1 |
| 20260505063512 | 59 | 225 | 2.0 | 6.0 | 0.00 | 0.00 | 0.00 | 72 | 1000.1 |
| 20260505063039 | 59 | 224 | 2.0 | 9.0 | 0.00 | 0.00 | 0.00 | 72 | 999.3 |
| 20260505063029 | 59 | 217 | 3.0 | 6.0 | 0.00 | 0.00 | 0.00 | 72 | 1000.2 |
| 20260505062523 | 60 | 257 | 1.0 | 5.0 | 0.00 | 0.00 | 0.00 | 71 | 1000.2 |
| 20260505062515 | 60 | 197 | 2.0 | 11.0 | 0.00 | 0.00 | 0.00 | 70 | 1000.2 |
| 20260505061546 | 58 | 253 | 3.0 | 8.0 | 0.00 | 0.00 | 0.00 | 72 | 999.4 |
| 20260505061529 | 61 | 218 | 2.0 | 11.0 | 0.00 | 0.00 | 0.00 | 70 | 1000.3 |
| 20260505061013 | 61 | 220 | 5.0 | 11.0 | 0.00 | 0.00 | 0.00 | 71 | 1000.4 |
| 20260505060511 | 60 | 232 | 4.0 | 10.0 | 0.00 | 0.00 | 0.00 | 71 | 1000.4 |
| 20260505060046 | 58 | 250 | 3.0 | 10.0 | 0.00 | 0.00 | 0.00 | 72 | 999.6 |
| 20260505060026 | 60 | 231 | 5.0 | 10.0 | 0.00 | 0.00 | 0.00 | 72 | 1000.5 |
| 20260505055511 | 60 | 263 | 4.0 | 9.0 | 0.00 | 0.00 | 0.00 | 72 | 1000.7 |
| 20260505055013 | 59 | 228 | 5.0 | 9.0 | 0.00 | 0.00 | 0.00 | 72 | 1000.7 |
| 20260505054545 | 58 | 238 | 4.0 | 7.0 | 0.00 | 0.00 | 0.00 | 72 | 999.7 |
| 20260505054541 | 59 | 213 | 4.0 | 9.0 | 0.00 | 0.00 | 0.00 | 72 | 1000.6 |
| 20260505054015 | 58 | 241 | 4.0 | 9.0 | 0.00 | 0.00 | 0.00 | 73 | 1000.6 |
| 20260505053513 | 58 | 218 | 4.0 | 8.0 | 0.00 | 0.00 | 0.00 | 74 | 1000.6 |
| 20260505053042 | 59 | 254 | 4.0 | 9.0 | 0.00 | 0.00 | 0.00 | 72 | 999.5 |
| 20260505053029 | 58 | 223 | 2.0 | 6.0 | 0.00 | 0.00 | 0.00 | 73 | 1000.6 |
| 20260505052512 | 58 | 219 | 2.0 | 7.0 | 0.00 | 0.00 | 0.00 | 73 | 1000.4 |
| 20260505052012 | 59 | 157 | 3.0 | 8.0 | 0.00 | 0.00 | 0.00 | 72 | 1000.5 |
| 20260505051544 | 59 | 205 | 5.0 | 9.0 | 0.00 | 0.00 | 0.00 | 73 | 999.6 |
| 20260505051528 | 59 | 213 | 3.0 | 8.0 | 0.00 | 0.00 | 0.00 | 73 | 1000.5 |
| 20260505051014 | 59 | 214 | 3.0 | 10.0 | 0.00 | 0.00 | 0.00 | 73 | 1000.5 |
| 20260505050514 | 59 | 269 | 5.0 | 10.0 | 0.00 | 0.00 | 0.00 | 73 | 1000.7 |
| 20260505041539 | 61 | 259 | 4.0 | 10.0 | 0.00 | 0.00 | 0.00 | 69 | 999.6 |
| 20260505041531 | 60 | 223 | 5.0 | 14.0 | 0.00 | 0.00 | 0.00 | 71 | 1000.7 |
| 20260505041013 | 60 | 208 | 7.0 | 14.0 | 0.00 | 0.00 | 0.00 | 70 | 1000.6 |
| 20260505040513 | 60 | 190 | 8.0 | 13.0 | 0.00 | 0.00 | 0.00 | 70 | 1000.5 |
| 20260505040040 | 61 | 194 | 7.0 | 14.0 | 0.00 | 0.00 | 0.00 | 70 | 1000.6 |
| 20260505040037 | 61 | 214 | 5.0 | 17.0 | 0.00 | 0.00 | 0.00 | 67 | 999.8 |
| 20260505035514 | 61 | 278 | 8.0 | 14.0 | 0.00 | 0.00 | 0.00 | 69 | 1000.7 |
| 20260505035010 | 61 | 242 | 5.0 | 11.0 | 0.00 | 0.00 | 0.00 | 70 | 1000.8 |
| 20260505034536 | 60 | 197 | 4.0 | 9.0 | 0.00 | 0.00 | 0.00 | 70 | 1000.9 |
| 20260505034010 | 60 | 214 | 3.0 | 8.0 | 0.00 | 0.00 | 0.00 | 68 | 1001.0 |
| 20260505033510 | 60 | 229 | 2.0 | 8.0 | 0.00 | 0.00 | 0.00 | 67 | 1001.0 |
| 20260505033057 | 62 | 243 | 3.0 | 9.0 | 0.00 | 0.00 | 0.00 | 62 | 1000.0 |
| 20260505033026 | 60 | 192 | 2.0 | 8.0 | 0.00 | 0.00 | 0.00 | 66 | 1001.0 |
| 20260505032513 | 61 | 208 | 2.0 | 10.0 | 0.00 | 0.00 | 0.00 | 65 | 1001.0 |
| 20260505032013 | 61 | 202 | 4.0 | 14.0 | 0.00 | 0.00 | 0.00 | 64 | 1001.1 |
| 20260505031542 | 62 | 235 | 4.0 | 15.0 | 0.00 | 0.00 | 0.00 | 60 | 1000.2 |
| 20260505031527 | 62 | 224 | 4.0 | 14.0 | 0.00 | 0.00 | 0.00 | 63 | 1001.1 |
| 20260505031013 | 62 | 226 | 5.0 | 14.0 | 0.00 | 0.00 | 0.00 | 62 | 1001.1 |
| 20260505030513 | 62 | 198 | 5.0 | 11.0 | 0.00 | 0.00 | 0.00 | 61 | 1001.2 |
| 20260505030040 | 63 | 259 | 3.0 | 13.0 | 0.00 | 0.00 | 0.00 | 57 | 1000.5 |
| 20260505030028 | 63 | 208 | 6.0 | 11.0 | 0.00 | 0.00 | 0.00 | 59 | 1001.3 |
| 20260505025516 | 63 | 219 | 4.0 | 12.0 | 0.00 | 0.00 | 0.00 | 58 | 1001.2 |
| 20260505025011 | 63 | 231 | 5.0 | 12.0 | 0.00 | 0.00 | 0.00 | 57 | 1001.4 |
| 20260505024536 | 63 | 215 | 4.0 | 13.0 | 0.00 | 0.00 | 0.00 | 54 | 1000.5 |
| 20260505024528 | 64 | 242 | 5.0 | 12.0 | 0.00 | 0.00 | 0.00 | 56 | 1001.4 |
| 20260505024012 | 64 | 217 | 5.0 | 11.0 | 0.00 | 0.00 | 0.00 | 56 | 1001.4 |
| 20260505023512 | 64 | 267 | 5.0 | 11.0 | 0.00 | 0.00 | 0.00 | 54 | 1001.5 |
| 20260505023044 | 64 | 257 | 6.0 | 16.0 | 0.00 | 0.00 | 0.00 | 52 | 1000.7 |
| 20260505023028 | 64 | 253 | 5.0 | 12.0 | 0.00 | 0.00 | 0.00 | 53 | 1001.5 |
| 20260505022510 | 64 | 219 | 5.0 | 12.0 | 0.00 | 0.00 | 0.00 | 52 | 1001.6 |
| 20260505022011 | 64 | 225 | 5.0 | 14.0 | 0.00 | 0.00 | 0.00 | 51 | 1001.7 |
| 20260505021540 | 65 | 233 | 4.0 | 11.0 | 0.00 | 0.00 | 0.00 | 47 | 1000.8 |
| 20260505021529 | 64 | 198 | 5.0 | 14.0 | 0.00 | 0.00 | 0.00 | 51 | 1001.7 |
| 20260505021016 | 64 | 218 | 5.0 | 10.0 | 0.00 | 0.00 | 0.00 | 50 | 1001.7 |
| 20260505020512 | 64 | 202 | 5.0 | 11.0 | 0.00 | 0.00 | 0.00 | 50 | 1001.5 |
| 20260505020046 | 65 | 242 | 2.0 | 8.0 | 0.00 | 0.00 | 0.00 | 44 | 1000.7 |
| 20260505020037 | 64 | 201 | 5.0 | 11.0 | 0.00 | 0.00 | 0.00 | 50 | 1001.5 |
| 20260505015513 | 63 | 218 | 4.0 | 13.0 | 0.00 | 0.00 | 0.00 | 49 | 1001.4 |
| 20260505015016 | 63 | 234 | 4.0 | 13.0 | 0.00 | 0.00 | 0.00 | 49 | 1001.3 |
| 20260505014542 | 66 | 251 | 3.0 | 7.0 | 0.00 | 0.00 | 0.00 | 42 | 1000.5 |
| 20260505014530 | 63 | 239 | 4.0 | 13.0 | 0.00 | 0.00 | 0.00 | 48 | 1001.3 |
| 20260505014014 | 64 | 206 | 5.0 | 13.0 | 0.00 | 0.00 | 0.00 | 47 | 1001.4 |
| 20260505013512 | 64 | 210 | 5.0 | 13.0 | 0.00 | 0.00 | 0.00 | 47 | 1001.2 |
| 20260505013038 | 66 | 265 | 2.0 | 6.0 | 0.00 | 0.00 | 0.00 | 40 | 1000.4 |
| 20260505013030 | 64 | 243 | 2.0 | 6.0 | 0.00 | 0.00 | 0.00 | 47 | 1001.3 |
| 20260505012512 | 64 | 212 | 3.0 | 6.0 | 0.00 | 0.00 | 0.00 | 46 | 1001.2 |
| 20260505012012 | 64 | 222 | 2.0 | 6.0 | 0.00 | 0.00 | 0.00 | 45 | 1001.3 |
| 20260505011536 | 66 | 273 | 2.0 | 7.0 | 0.00 | 0.00 | 0.00 | 38 | 1000.5 |
| 20260505011530 | 65 | 219 | 2.0 | 5.0 | 0.00 | 0.00 | 0.00 | 44 | 1001.2 |
| 20260505011013 | 65 | 227 | 2.0 | 8.0 | 0.00 | 0.00 | 0.00 | 42 | 1001.2 |
| 20260505010554 | 66 | 210 | 3.0 | 8.0 | 0.00 | 0.00 | 0.00 | 41 | 1001.2 |
| 20260505010044 | 67 | 246 | 6.0 | 13.0 | 0.00 | 0.00 | 0.00 | 37 | 1000.5 |
| 20260505010031 | 67 | 217 | 4.0 | 10.0 | 0.00 | 0.00 | 0.00 | 40 | 1001.1 |
| 20260505005513 | 67 | 217 | 3.0 | 11.0 | 0.00 | 0.00 | 0.00 | 38 | 1001.0 |
| 20260505005012 | 68 | 269 | 5.0 | 11.0 | 0.00 | 0.00 | 0.00 | 37 | 1001.0 |
| 20260505004547 | 67 | 227 | 2.0 | 8.0 | 0.00 | 0.00 | 0.00 | 36 | 1000.4 |
| 20260505004528 | 68 | 243 | 5.0 | 11.0 | 0.00 | 0.00 | 0.00 | 36 | 1001.0 |
| 20260505004010 | 69 | 211 | 3.0 | 12.0 | 0.00 | 0.00 | 0.00 | 35 | 1001.0 |
| 20260505003516 | 69 | 204 | 4.0 | 12.0 | 0.00 | 0.00 | 0.00 | 34 | 1001.0 |
| 20260505003043 | 68 | 244 | 6.0 | 11.0 | 0.00 | 0.00 | 0.00 | 35 | 1000.4 |
| 20260505003027 | 69 | 217 | 3.0 | 12.0 | 0.00 | 0.00 | 0.00 | 34 | 1000.9 |
| 20260505002512 | 69 | 229 | 4.0 | 12.0 | 0.00 | 0.00 | 0.00 | 33 | 1001.1 |
| 20260505002013 | 69 | 277 | 4.0 | 11.0 | 0.00 | 0.00 | 0.00 | 33 | 1001.1 |
| 20260505001543 | 68 | 261 | 5.0 | 9.0 | 0.00 | 0.00 | 0.00 | 35 | 1000.4 |
| 20260505001528 | 70 | 262 | 4.0 | 14.0 | 0.00 | 0.00 | 0.00 | 33 | 1001.3 |
| 20260505001012 | 70 | 112 | 5.0 | 23.0 | 0.00 | 0.00 | 0.00 | 33 | 1001.3 |
| 20260505000513 | 70 | 261 | 5.0 | 23.0 | 0.00 | 0.00 | 0.00 | 33 | 1001.4 |
| 20260505000044 | 69 | 267 | 5.0 | 12.0 | 0.00 | 0.00 | 0.00 | 35 | 1000.8 |
| 20260505000042 | 69 | 243 | 4.0 | 15.0 | 0.00 | 0.00 | 0.00 | 34 | 1001.5 |
| 20260504235513 | 69 | 249 | 7.0 | 15.0 | 0.00 | 0.00 | 0.00 | 34 | 1001.5 |
| 20260504235012 | 69 | 263 | 6.0 | 12.0 | 0.00 | 0.00 | 0.00 | 34 | 1001.5 |
| 20260504234558 | 69 | 255 | 3.0 | 13.0 | 0.00 | 0.00 | 0.00 | 35 | 1000.7 |
| 20260504234528 | 69 | 227 | 5.0 | 18.0 | 0.00 | 0.00 | 0.00 | 35 | 1001.5 |
| 20260504234012 | 69 | 259 | 7.0 | 18.0 | 0.00 | 0.00 | 0.00 | 35 | 1001.6 |
| 20260504233512 | 69 | 217 | 5.0 | 19.0 | 0.00 | 0.00 | 0.00 | 35 | 1001.6 |
| 20260504233035 | 69 | 232 | 4.0 | 10.0 | 0.00 | 0.00 | 0.00 | 36 | 1000.8 |
| 20260504233030 | 69 | 257 | 5.0 | 19.0 | 0.00 | 0.00 | 0.00 | 35 | 1001.6 |
| 20260504232511 | 69 | 285 | 5.0 | 15.0 | 0.00 | 0.00 | 0.00 | 36 | 1001.7 |
| 20260504232012 | 69 | 225 | 6.0 | 14.0 | 0.00 | 0.00 | 0.00 | 37 | 1001.7 |
| 20260504231551 | 70 | 217 | 5.0 | 13.0 | 0.00 | 0.00 | 0.00 | 36 | 1000.9 |
| 20260504231530 | 69 | 229 | 5.0 | 11.0 | 0.00 | 0.00 | 0.00 | 37 | 1001.7 |
| 20260504231019 | 69 | 236 | 4.0 | 10.0 | 0.00 | 0.00 | 0.00 | 37 | 1001.7 |
| 20260504230511 | 69 | 220 | 6.0 | 15.0 | 0.00 | 0.00 | 0.00 | 37 | 1001.7 |
| 20260504230042 | 70 | 245 | 4.0 | 15.0 | 0.00 | 0.00 | 0.00 | 36 | 1000.9 |
| 20260504230028 | 69 | 269 | 6.0 | 15.0 | 0.00 | 0.00 | 0.00 | 37 | 1001.8 |
| 20260504225514 | 70 | 219 | 6.0 | 14.0 | 0.00 | 0.00 | 0.00 | 37 | 1001.7 |
| 20260504225012 | 70 | 231 | 7.0 | 18.0 | 0.00 | 0.00 | 0.00 | 36 | 1001.8 |
| 20260504224541 | 71 | 240 | 7.0 | 18.0 | 0.00 | 0.00 | 0.00 | 36 | 1000.9 |
| 20260504224528 | 70 | 207 | 7.0 | 20.0 | 0.00 | 0.00 | 0.00 | 37 | 1001.7 |
| 20260504224013 | 70 | 233 | 9.0 | 20.0 | 0.00 | 0.00 | 0.00 | 37 | 1001.7 |
| 20260504223512 | 70 | 222 | 6.0 | 15.0 | 0.00 | 0.00 | 0.00 | 37 | 1001.7 |
| 20260504223040 | 72 | 260 | 7.0 | 20.0 | 0.00 | 0.00 | 0.00 | 35 | 1000.8 |
| 20260504223035 | 70 | 221 | 7.0 | 13.0 | 0.00 | 0.00 | 0.00 | 38 | 1001.7 |
| 20260504222515 | 70 | 249 | 6.0 | 15.0 | 0.00 | 0.00 | 0.00 | 39 | 1001.8 |
| 20260504222014 | 70 | 237 | 7.0 | 15.0 | 0.00 | 0.00 | 0.00 | 38 | 1001.9 |
| 20260504221549 | 70 | 213 | 7.0 | 16.0 | 0.00 | 0.00 | 0.00 | 38 | 1001.7 |
| 20260504221011 | 69 | 225 | 5.0 | 16.0 | 0.00 | 0.00 | 0.00 | 39 | 1001.8 |
| 20260504220610 | 70 | 242 | 6.0 | 17.0 | 0.00 | 0.00 | 0.00 | 40 | 1001.8 |
| 20260504220050 | 70 | 226 | 5.0 | 17.0 | 0.00 | 0.00 | 0.00 | 38 | 1001.0 |
| 20260504220042 | 70 | 227 | 6.0 | 17.0 | 0.00 | 0.00 | 0.00 | 40 | 1001.8 |
| 20260504215513 | 70 | 240 | 7.0 | 17.0 | 0.00 | 0.00 | 0.00 | 40 | 1001.8 |
| 20260504215013 | 70 | 226 | 7.0 | 17.0 | 0.00 | 0.00 | 0.00 | 40 | 1001.8 |
| 20260504214542 | 71 | 215 | 5.0 | 14.0 | 0.00 | 0.00 | 0.00 | 38 | 1001.0 |
| 20260504214534 | 69 | 173 | 8.0 | 16.0 | 0.00 | 0.00 | 0.00 | 41 | 1001.9 |
| 20260504214012 | 69 | 213 | 8.0 | 14.0 | 0.00 | 0.00 | 0.00 | 41 | 1001.8 |
| 20260504213515 | 69 | 226 | 6.0 | 16.0 | 0.00 | 0.00 | 0.00 | 44 | 1001.8 |